Location: Cul de Sac
(18.0387°N, 63.0654°W)
Time: 18:01:11
(UTC+00:00)

CZ-4 R/B - Pass Details

Date: 29 October 2020
Orbit: 532 x 598 km, 97.7° (Epoch: 28 November)

Event Time Altitude Azimuth Distance (km) Brightness Sun altitude
Rises 22:05:24 0° 128° (SE) 2,723 4.5 -6.4°
Reaches altitude 10° 22:08:44 10° 98° (E) 1,815 3.4 -7.2°
Maximum altitude 22:10:18 12° 74° (ENE) 1,674 3.1 -7.6°
Drops below altitude 10° 22:11:51 10° 50° (NE) 1,803 3.4 -7.9°
Sets 22:15:08 0° 19° (NNE) 2,684 4.5 -8.7°
